Date String (YYYY-MM-DD hh:mm:ss) UTC,Instrument flags,Ambient pressure (hPa),Sample flow (lpm),Bypass flow (lpm),Sample temperature (°C),Ambient temperature (°C),ASC tube jacket temperature (°C),LED temperature (°C),Box temperature (°C),Sample RH (%),Span deviation,Mass concentration (μg/m³),Mass concentration (μg/m³),Mass concentration (μg/m³)
DateTimeUTC,F1_M11,P_M11,Q1_M11,Q2_M11,T1_M11,T2_M11,T3_M11,T4_M11,T5_M11,U1_M11,ZSPAN_M11,X0_M11,X2_M11,X1_M11
2021-10-20 07:00:00,,0828.3,5.01,0.00,25.4,24.6,00.0,34.7,27.1,18.0,0000.0,0009.03,0003.09,0002.34
2021-10-20 07:01:00,,0828.3,4.98,0.00,25.4,24.5,00.0,34.7,27.1,18.0,0000.0,0009.11,0003.10,0002.33
2021-10-20 07:02:00,,0828.3,5.00,0.00,25.4,24.5,00.0,34.7,27.1,18.0,0000.0,0009.09,0003.04,0002.32
2021-10-20 07:03:00,,0828.3,4.99,0.00,25.3,24.5,00.0,34.6,27.0,18.1,0000.0,0009.25,0003.01,0002.30
2021-10-20 07:04:00,,0828.3,5.01,0.00,25.3,24.4,00.0,34.6,27.0,18.1,0000.0,0009.35,0002.99,0002.29
2021-10-20 07:05:00,,0828.3,5.00,0.00,25.3,24.4,00.0,34.6,27.0,18.2,0000.0,0009.15,0002.95,0002.27
2021-10-20 07:06:00,,0828.3,5.00,0.00,25.2,24.3,00.0,34.6,26.9,18.3,0000.0,0008.33,0002.87,0002.22
2021-10-20 07:07:00,,0828.3,5.01,0.00,25.2,24.3,00.0,34.5,26.8,18.3,0000.0,0008.93,0002.84,0002.18
2021-10-20 07:08:00,,0828.3,4.99,0.00,25.1,24.2,00.0,34.5,26.8,18.4,0000.0,0008.09,0002.78,0002.14
2021-10-20 07:09:00,,0828.4,4.99,0.00,25.1,24.1,00.0,34.5,26.7,18.5,0000.0,0007.79,0002.71,0002.10
2021-10-20 07:10:00,,0828.4,5.01,0.00,25.1,24.1,00.0,34.4,26.7,18.5,0000.0,0007.81,0002.73,0002.07
2021-10-20 07:11:00,,0828.5,5.00,0.00,25.0,24.1,00.0,34.4,26.7,18.5,0000.0,0007.70,0002.64,0002.06
2021-10-20 07:12:00,,0828.4,5.00,0.00,25.0,24.1,00.0,34.4,26.7,18.5,0000.0,0007.74,0002.62,0002.02
2021-10-20 07:13:00,,0828.4,5.00,0.00,25.0,24.1,00.0,34.4,26.7,18.5,0000.0,0007.80,0002.66,0001.98
2021-10-20 07:14:00,,0828.4,5.01,0.00,25.0,24.1,00.0,34.3,26.7,18.5,0000.0,0007.74,0002.66,0001.96
2021-10-20 07:15:00,,0828.5,5.00,0.00,24.9,24.1,00.0,34.3,26.7,18.6,0000.0,0007.54,0002.65,0001.94
2021-10-20 07:16:00,,0828.4,4.99,0.00,24.9,24.1,00.0,34.3,26.7,18.6,0000.0,0007.90,0002.65,0001.90
2021-10-20 07:17:00,,0828.4,5.00,0.00,24.9,24.1,00.0,34.3,26.6,18.6,0000.0,0008.23,0002.72,0001.90
2021-10-20 07:18:00,,0828.4,5.00,0.00,24.9,24.1,00.0,34.2,26.7,18.6,0000.0,0007.51,0002.71,0001.90
2021-10-20 07:19:00,,0828.5,5.00,0.00,24.9,24.1,00.0,34.2,26.7,18.6,0000.0,0007.81,0002.70,0001.90
2021-10-20 07:20:00,,0828.5,5.00,0.00,24.9,24.1,00.0,34.2,26.7,18.6,0000.0,0007.78,0002.67,0001.89
2021-10-20 07:21:00,,0828.5,5.01,0.00,24.9,24.0,00.0,34.2,26.7,18.6,0000.0,0008.05,0002.64,0001.88
2021-10-20 07:22:00,,0828.5,4.98,0.00,24.9,23.9,00.0,34.2,26.6,18.6,0000.0,0007.75,0002.57,0001.85
2021-10-20 07:23:00,,0828.5,5.01,0.00,24.8,23.8,00.0,34.1,26.6,18.6,0000.0,0007.53,0002.54,0001.84
2021-10-20 07:24:00,,0829.0,5.01,0.00,24.8,23.8,00.0,34.1,26.5,18.6,0000.0,0007.42,0002.49,0001.83
2021-10-20 07:25:00,,0829.0,4.99,0.00,24.8,23.7,00.0,34.1,26.5,18.7,0000.0,0007.38,0002.47,0001.82
2021-10-20 07:26:00,,0828.9,4.99,0.00,24.8,23.7,00.0,34.1,26.5,18.7,0000.0,0007.50,0002.42,0001.80
2021-10-20 07:27:00,,0828.8,5.01,0.00,24.7,23.7,00.0,34.1,26.5,18.7,0000.0,0007.75,0002.35,0001.79
2021-10-20 07:28:00,,0828.7,4.99,0.00,24.7,23.7,00.0,34.0,26.5,18.7,0000.0,0007.42,0002.31,0001.77
2021-10-20 07:29:00,,0828.7,5.01,0.00,24.7,23.6,00.0,34.0,26.5,18.7,0000.0,0007.46,0002.29,0001.76
2021-10-20 07:30:00,,0829.0,5.01,0.00,24.7,23.6,00.0,34.0,26.4,18.7,0000.0,0007.65,0002.25,0001.75
2021-10-20 07:31:00,,0828.7,4.99,0.00,24.7,23.6,00.0,34.0,26.4,18.7,0000.0,0007.86,0002.22,0001.73
2021-10-20 07:32:00,,0828.7,5.01,0.00,24.7,23.7,00.0,33.9,26.4,18.7,0000.0,0007.53,0002.21,0001.73
2021-10-20 07:33:00,,0828.7,5.00,0.00,24.7,23.7,00.0,33.9,26.4,18.8,0000.0,0006.87,0002.21,0001.73
2021-10-20 07:34:00,,0828.7,5.00,0.00,24.7,23.8,00.0,33.9,26.4,18.8,0000.0,0006.55,0002.25,0001.72
2021-10-20 07:35:00,,0828.7,4.98,0.00,24.7,23.8,00.0,33.9,26.4,18.8,0000.0,0006.55,0002.24,0001.71
2021-10-20 07:36:00,,0828.7,5.00,0.00,24.7,23.9,00.0,33.9,26.5,18.8,0000.0,0006.41,0002.18,0001.69
2021-10-20 07:37:00,,0828.7,5.01,0.00,24.7,23.9,00.0,33.9,26.5,18.8,0000.0,0006.31,0002.18,0001.69
2021-10-20 07:38:00,,0828.7,4.99,0.00,24.7,23.8,00.0,33.9,26.5,18.8,0000.0,0005.51,0002.26,0001.70
2021-10-20 07:39:00,,0828.7,5.01,0.00,24.7,23.8,00.0,33.9,26.5,18.9,0000.0,0005.44,0002.25,0001.71
2021-10-20 07:40:00,,0829.2,5.00,0.00,24.7,23.8,00.0,33.9,26.5,18.9,0000.0,0005.24,0002.22,0001.70
2021-10-20 07:41:00,,0829.2,4.99,0.00,24.7,23.8,00.0,33.9,26.5,18.9,0000.0,0004.75,0002.28,0001.70
2021-10-20 07:42:00,,0828.9,5.01,0.00,24.7,23.8,00.0,33.8,26.5,18.9,0000.0,0005.48,0002.28,0001.70
2021-10-20 07:43:00,,0828.9,5.00,0.00,24.7,23.8,00.0,33.8,26.5,18.9,0000.0,0005.62,0002.31,0001.70
2021-10-20 07:44:00,,0828.9,5.01,0.00,24.7,23.8,00.0,33.8,26.5,18.9,0000.0,0005.76,0002.35,0001.72
2021-10-20 07:45:00,,0828.9,4.99,0.00,24.7,23.9,00.0,33.8,26.5,18.9,0000.0,0005.65,0002.32,0001.72
2021-10-20 07:46:00,,0828.9,5.00,0.00,24.7,23.9,00.0,33.8,26.5,18.8,0000.0,0005.56,0002.29,0001.73
2021-10-20 07:47:00,,0828.9,5.00,0.00,24.7,24.0,00.0,33.8,26.5,18.8,0000.0,0006.74,0002.37,0001.77
2021-10-20 07:48:00,,0828.9,5.01,0.00,24.8,24.0,00.0,33.8,26.6,18.7,0000.0,0007.09,0002.40,0001.79
2021-10-20 07:49:00,,0828.9,4.99,0.00,24.8,24.0,00.0,33.8,26.6,18.8,0000.0,0006.93,0002.38,0001.80
2021-10-20 07:50:00,,0828.9,4.99,0.00,24.8,24.1,00.0,33.8,26.6,18.8,0000.0,0006.80,0002.40,0001.83
2021-10-20 07:51:00,,0828.9,5.00,0.00,24.8,24.0,00.0,33.8,26.6,18.8,0000.0,0006.79,0002.41,0001.85
2021-10-20 07:52:00,,0828.9,5.02,0.00,24.7,24.0,00.0,33.8,26.6,18.8,0000.0,0006.75,0002.41,0001.86
2021-10-20 07:53:00,,0828.9,4.99,0.00,24.7,23.9,00.0,33.8,26.6,18.8,0000.0,0006.16,0002.43,0001.87
2021-10-20 07:54:00,,0828.9,5.01,0.00,24.7,23.9,00.0,33.8,26.6,18.8,0000.0,0006.03,0002.41,0001.88
2021-10-20 07:55:00,,0828.9,4.99,0.00,24.8,24.0,00.0,33.8,26.6,18.8,0000.0,0006.03,0002.40,0001.89
2021-10-20 07:56:00,,0829.0,5.01,0.00,24.8,24.1,00.0,33.9,26.6,18.7,0000.0,0006.23,0002.46,0001.90
2021-10-20 07:57:00,,0829.0,4.99,0.00,24.8,24.1,00.0,33.9,26.6,18.7,0000.0,0006.41,0002.51,0001.92
2021-10-20 07:58:00,,0829.0,5.00,0.00,24.8,24.1,00.0,33.9,26.6,18.7,0000.0,0005.37,0002.49,0001.91
2021-10-20 07:59:00,,0828.9,5.01,0.00,24.9,24.2,00.0,33.9,26.7,18.7,0000.0,0005.02,0002.46,0001.90
